Location: Bircheregg
(46.8500°N, 15.8500°E)
Time: 10:00:02
(UTC+00:00)

Daily predictions for brighter satellites

Satellite Brightness Start Highest point End
(mag) Time Altitude Azimuth Time Altitude Azimuth Time Altitude Azimuth
CZ-4C R/B 3.1 15:28:22 10° NW 15:35:20 59° NE 15:43:32 10° ESE
ATLAS 2AS CENTAUR R/B 4.3 15:31:11 10° WNW 15:36:56 22° N 15:42:28 10° NE
Cosmos 2034 Rocket 4.0 15:31:34 10° S 15:37:43 88° E 15:43:56 10° N
Cosmos 1743 Rocket 3.6 15:38:19 10° N 15:42:41 86° W 15:47:01 10° S
Cosmos 1697 Rocket 3.1 15:37:09 10° NNW 15:42:45 72° WSW 15:48:20 10° SSE
USA 307 3.8 15:39:14 10° WNW 15:43:07 33° N 15:46:59 10° ENE
Meteor PRIRODA 3.6 15:40:32 10° SSE 15:44:07 64° ENE 15:47:42 10° N
Cosmos 372 Rocket 4.0 15:39:30 10° NNW 15:44:42 60° ENE 15:49:53 10° SE
Cosmos 2322 Rocket 3.5 15:40:51 10° N 15:44:58 20° NE 15:49:06 10° E
CZ-4C R/B 3.4 15:41:31 10° N 15:45:16 71° WNW 15:48:50 10° SSW
ERBS 4.4 15:43:50 10° NW 15:45:36 14° N 15:47:23 10° NNE
USA 234 3.5 15:39:40 10° E 15:45:59 54° NNE 15:52:18 10° NW
Cosmos 1937 Rocket 3.6 15:40:43 10° NNW 15:46:05 88° WSW 15:51:24 10° SSE
Lacrosse 5 rocket 1.7 15:43:34 10° NW 15:47:16 42° NNE 15:51:09 10° ESE
Cosmos 1980 Rocket 2.2 15:43:18 10° NNW 15:48:59 71° ENE 15:54:36 10° SE
Cosmos 2026 Rocket 3.9 15:46:54 10° N 15:52:59 66° ENE 15:59:00 10° SSE
Cosmos 1666 Rocket 4.1 15:49:45 10° N 15:53:51 35° ENE 15:57:54 10° SE
NOSS 2-2 (D) 4.5 15:48:45 10° NW 15:53:59 88° SW 16:01:25 10° SE
Meteor 1-26 Rocket 4.5 15:48:16 10° S 15:54:09 59° E 16:00:05 10° NNE
CORIOLIS 4.4 15:49:17 10° SE 15:54:28 50° ENE 15:59:43 10° N
Cosmos 1634 Rocket 4.1 15:48:28 10° S 15:54:38 58° E 16:00:50 10° NNE
Cosmos 1809 Rocket 4.4 15:48:36 10° N 15:54:43 75° E 16:00:47 10° SSE
Cosmos 1125 Rocket 4.5 15:50:55 10° N 15:55:15 25° NE 15:59:34 10° ESE
Cosmos 2195 Rocket 4.5 15:51:25 10° N 15:57:38 83° E 16:03:51 10° S
H-2A R/B 2.6 15:54:18 10° SE 15:58:49 33° ENE 16:03:14 10° N
Cosmos 2369 4.0 15:54:51 10° NNW 16:00:37 78° WSW 16:06:19 10° SSE
Cosmos 1812 3.3 15:58:11 10° SSE 16:01:45 37° E 16:05:19 10° NNE
PSLV R/B 4.3 15:59:39 10° SE 16:03:00 33° ENE 16:06:25 10° N
Okean O Rocket 2.9 16:00:43 10° ESE 16:03:54 19° ENE 16:07:05 10° NNE
X-37B 2.8 16:03:04 10° S 16:04:35 13° SSE 16:06:06 10° ESE
CZ-2C R/B 3.2 16:00:52 10° S 16:05:41 71° WSW 16:10:27 10° NNW
USA 308 3.6 16:02:00 10° NW 16:05:57 36° NNE 16:09:18 13° ENE
SL-16 R/B 2.9 16:00:55 10° NNW 16:05:59 32° NE 16:11:00 10° ESE
Cosmos 2082 Rocket 2.2 16:02:52 10° SSW 16:08:33 79° ESE 16:14:14 10° NNE
Cosmos 540 Rocket 3.7 16:04:25 10° SSW 16:09:30 70° WNW 16:14:38 10° NNE
Sich 1 3.0 16:05:16 10° N 16:09:36 89° W 16:13:56 10° S
ARGOS 4.0 16:05:28 10° ESE 16:09:58 28° ENE 16:14:27 10° N
Meteor 1-5 Rocket 4.4 16:05:45 10° N 16:11:37 55° ENE 16:17:22 10° SSE
FengYun 1-2 T 4.3 16:07:49 10° SSE 16:13:24 86° WSW 16:18:58 10° NNW
COSMOS 2455 3.0 16:09:16 10° SW 16:15:18 79° NW 16:21:23 10° NNE
SMAP 3.0 16:11:28 10° SSE 16:16:07 83° ENE 16:20:49 10° NNW
NOAA 6 4.0 16:12:28 10° SSE 16:17:36 84° ENE 16:22:45 10° NNW
deb Chang Zheng 4 4.3 16:16:10 10° SE 16:19:53 29° ENE 16:23:37 10° N
Cosmos 1933 4.4 16:17:40 10° SSW 16:21:34 48° WNW 16:25:30 10° N
Cosmos 1805 Rocket 4.5 16:17:51 10° NNW 16:22:04 52° W 16:26:17 10° S
Cosmos 1833 Rocket 3.7 16:16:46 10° SW 16:22:06 43° NW 16:27:29 10° NNE
Cosmos 2278 3.7 16:17:21 10° NNW 16:23:06 90° WSW 16:28:48 10° SSE
Cosmos 2333 Rocket 3.7 16:21:37 10° N 16:25:03 16° NE 16:26:02 15° NE
CZ-4B DEB 4.1 16:21:15 10° SSE 16:26:44 78° ENE 16:32:14 10° NNW
CZ-2C R/B 3.1 16:25:43 10° NNE 16:30:28 36° E 16:35:12 10° SSE
USA 305 3.3 16:26:23 10° NW 16:30:29 45° NNE 16:32:51 22° E
Cosmos 1655 Rocket 4.3 16:26:06 10° N 16:32:14 45° ENE 16:38:16 10° SSE
CZ-4B R/B 4.5 16:28:40 10° SSW 16:32:20 36° W 16:35:51 10° NNW
Cosmos 1356 Rocket 4.2 16:29:21 10° N 16:33:06 30° ENE 16:36:50 10° SE
Cosmos 2219 Rocket 3.8 16:30:05 10° N 16:33:08 14° NE 16:33:21 14° NE
Cosmos 1500 4.2 16:31:37 10° NNW 16:35:14 47° W 16:38:49 10° SSW
Meteor 1-14 Rocket 4.3 16:29:45 10° N 16:35:39 90° E 16:41:37 10° S
Cosmos 44 Rocket 3.2 16:32:28 10° NW 16:37:25 87° NE 16:42:11 10° SE
Meteor 2-16 Rocket 4.4 16:33:41 10° N 16:39:51 87° E 16:46:00 10° S
Cosmos 1515 Rocket 4.1 16:36:54 10° SSE 16:40:58 36° E 16:43:15 21° NE
COSMOS 2406 4.4 16:36:23 10° WSW 16:41:46 40° NW 16:47:10 10° NNE
Cosmos 1814 Rocket 4.1 16:37:08 10° SSW 16:42:21 77° WNW 16:47:33 10° NNE
Cosmos 921 Rocket 3.0 16:39:21 10° S 16:43:26 54° ESE 16:45:57 22° NE
Cosmos 1570 Rocket 4.1 16:43:59 10° SSW 16:49:13 78° WNW 16:54:15 11° NNE
MOS 1-B Rocket 4.1 16:45:41 10° NNE 16:51:45 75° ESE 16:58:46 10° S
CZ-4B R/B 3.0 16:47:28 10° SSE 16:52:49 71° ENE 16:58:08 10° N
USA 267 3.3 16:50:26 21° NE 16:55:02 82° NNW 17:01:35 10° WSW
CZ-2D R/B 3.5 16:51:26 10° S 16:55:15 68° WSW 16:59:04 10° NNW
Cosmos 2298 Rocket 3.9 16:50:34 10° NNW 16:55:56 80° ENE 17:01:16 10° SSE
MOS 1-B 4.4 16:51:55 10° SSE 16:57:42 83° WSW 17:03:32 10° NNW
Meteor 2-15 Rocket 4.5 16:52:37 10° S 16:58:34 56° E 17:04:31 10° NNE
ATLAS CENTAUR R/B 3.3 16:51:35 10° WSW 16:59:25 42° NW 17:01:31 24° NNE
Cosmos 1151 Rocket 3.8 16:57:11 10° SSW 17:01:25 54° WNW 17:05:44 10° N
Meteor 1-27 Rocket 3.9 16:56:21 10° SSE 17:01:31 43° E 17:04:01 27° NE
COSMO-SKYMED 1 2.5 16:59:10 23° NNE 17:01:45 64° ESE 17:06:03 10° S
Cosmos 1633 Rocket 3.7 16:57:55 10° NNW 17:02:13 56° W 17:06:31 10° S
USA 306 2.9 16:58:40 10° NW 17:02:53 62° NNE 17:03:51 47° E
Cosmos 1666 4.0 17:00:26 10° NNW 17:03:56 40° W 17:07:25 10° SSW
APEX 2.7 17:00:31 10° SSW 17:04:13 70° ESE 17:04:23 68° E
Meteor 2-6 Rocket 4.2 16:58:43 10° SSW 17:04:26 83° W 17:10:02 10° N
Landsat 5 3.6 17:05:03 46° ESE 17:05:03 46° ESE 17:08:48 10° S
SJ-11-01 4.2 17:00:59 10° SSE 17:05:43 75° ENE 17:10:28 10° N
Cosmos 2360 Rocket 2.5 17:01:41 10° NNW 17:07:04 41° NE 17:08:17 36° E
ISS -0.6 17:06:12 10° WSW 17:07:55 13° SW 17:09:37 10° SSW
Helios 1B 4.4 17:06:10 28° NNE 17:08:23 72° ESE 17:12:41 10° S
YAOGAN 1 4.3 17:11:21 18° N 17:11:21 18° N 17:12:40 10° N
Cosmos 2237 4.2 17:04:44 10° NNW 17:10:23 57° ENE 17:13:43 24° SE
Cosmos 1818 4.3 17:07:32 10° NW 17:12:53 54° WSW 17:18:09 10° SSE
CZ-2C R/B 3.5 17:15:23 10° SW 17:18:04 16° S 17:19:13 15° SSE
ATLAS 5 CENTAUR R/B 1.5 17:13:50 10° NW 17:19:39 77° NNE 17:19:39 77° NNE
Meteor 2-15 4.5 17:13:39 10° S 17:19:46 82° W 17:25:53 10° N
Cosmos 2266 Rocket 4.0 17:15:00 10° N 17:21:26 87° W 17:27:51 10° S
USA 307 2.7 17:19:13 10° WNW 17:23:29 74° NNE 17:23:33 74° NE
CZ-4C R/B 4.2 17:17:02 10° NW 17:24:00 44° WSW 17:31:54 10° S
SL-08 RB Rocket 3.6 17:19:47 10° SSE 17:24:24 78° ENE 17:29:00 10° N
Lacrosse 5 rocket 2.7 17:22:40 10° WNW 17:26:21 37° SW 17:28:57 18° SSE
NOSS 3-4 (A) 4.3 17:21:52 10° NNW 17:28:07 38° NE 17:28:51 37° NE
NOSS 3-4 (C) 4.3 17:21:58 10° NNW 17:28:12 38° NE 17:28:56 37° NE
USA 234 3.5 17:22:35 11° SE 17:28:55 66° SW 17:35:26 10° NW
Cosmos 1933 Rocket 3.5 17:25:02 10° NNW 17:29:24 79° W 17:33:43 10° S
Cosmos 2322 Rocket 2.1 17:24:06 10° NNW 17:29:51 90° ENE 17:35:03 13° SSE
ATLAS 2AS CENTAUR R/B 3.9 17:24:28 10° NW 17:30:33 26° NNE 17:31:18 25° NNE
COSMOS 2428 4.3 17:26:11 10° N 17:28:43 20° NNE 17:28:43 20° NNE
Tiangong 4.0 17:29:50 10° SSW 17:30:10 11° S 17:30:10 11° S
NOAA 15 4.4 17:28:02 10° SSE 17:33:17 71° ENE 17:38:33 10° N
Cosmos 1544 4.2 17:32:02 10° NNW 17:35:29 44° W 17:38:57 10° SSW
Cosmos 1125 Rocket 4.2 17:32:31 10° NNW 17:37:39 54° WSW 17:42:45 10° S
Cosmos 1867 3.4 17:32:28 10° SSW 17:37:54 75° ESE 17:38:28 68° ENE
NOSS 3-3 (A) 3.9 17:32:36 10° SSW 17:38:06 56° ESE 17:38:22 56° ESE
H-2A R/B 3.5 17:33:31 10° SSW 17:38:12 35° W 17:42:48 10° NNW
NOSS 3-3 (C) 3.9 17:32:42 10° SSW 17:38:13 56° ESE 17:38:27 55° ESE
X-37B 3.1 17:36:50 10° WSW 17:37:49 18° SW 17:37:49 18° SW
DEBRIS 4.1 17:37:00 10° SSW 17:38:35 31° S 17:38:35 31° S
Okean O Rocket 2.4 17:35:32 10° S 17:39:52 52° W 17:44:15 10° NNW
GEOS 3 Rocket 4.0 17:41:55 46° NNE 17:41:55 46° NNE 17:46:10 10° NNW
Meteor 1-11 Rocket 4.1 17:37:03 10° NNW 17:42:39 64° W 17:48:20 10° S
USA 32 4.0 17:38:11 10° S 17:43:25 81° W 17:46:22 27° N
USA 308 3.4 17:41:54 10° WNW 17:45:21 57° WNW 17:45:21 57° WNW
ARGOS 4.0 17:44:45 10° S 17:49:58 49° W 17:55:12 10° NNW
SL-16 R/B 3.0 17:44:51 10° NW 17:50:18 49° WSW 17:55:44 10° S
Cosmos 2237 Rocket 4.5 17:48:51 10° N 17:49:04 11° N 17:49:04 11° N
Cosmos 2082 Rocket 4.2 17:48:57 10° W 17:53:18 22° NW 17:56:57 13° N
Cosmos 1241 Rocket 4.3 17:55:04 10° SW 18:01:27 89° NW 18:01:58 77° NNE
Cosmos 2333 Rocket 3.3 18:04:46 10° NNW 18:08:05 35° N 18:08:05 35° N
CZ-2C R/B 4.1 18:06:50 14° N 18:10:43 33° WNW 18:15:19 10° SW
Cosmos 2219 Rocket 3.7 18:12:43 10° NNW 18:15:05 25° NNW 18:15:05 25° NNW
USA 267 4.0 18:37:47 42° NNW 18:37:47 42° NNW 18:43:42 10° W
Cosmos 2360 Rocket 3.6 18:45:53 10° NW 18:50:08 34° W 18:50:08 34° W
ATLAS 2AS CENTAUR R/B 4.4 19:15:44 10° NW 19:18:44 26° NNW 19:18:44 26° NNW
